Miscellaneous Local Product
Issued by NWS North Platte, NE

Home | Current Version | Previous Version | Text Only | Print | Product List | Glossary On
Versions: 1 2 3 4 5 6 7 8 9 10 11 12 13 14 15 16 17 18 19 20 21 22 23 24 25 26 27 28 29 30 31 32 33 34 35 36 37 38 39 40 41 42 43 44 45 46 47 48 49 50
793
AXUS43 KLBF 281710
MISLBF


WESTERN AND NORTH CENTRAL NEBRASKA HOURLY WEATHER ROUNDUP
NATIONAL WEATHER SERVICE NORTH PLATTE NE
1200 PM CDT THU JUL 28 2016

NOTE: "FAIR" INDICATES FEW OR NO CLOUDS BELOW 12,000 FEET WITH NO
SIGNIFICANT WEATHER AND/OR OBSTRUCTIONS TO VISIBILITY.

NOTE: STATIONS NOT REPORTING VARIABLES SUCH AS SKY/WEATHER OR
PRESSURE ARE PROVIDED BY RAWS AND APRS NETWORKS AND ARE NOT UNDER
NATIONAL WEATHER SERVICE QUALITY CONTROL.

...OBSERVATIONS IN AND NEAR THE EASTERN PANHANDLE OF NEBRASKA...

CITY           SKY/WX    TMP DP  RH WIND       PRES   REMARKS
PINE RIDGE     LGT RAIN  65  60  84 W7        30.17F
CHADRON        PTSUNNY   64  59  83 SE8       30.17F
ALLIANCE       CLOUDY    62  58  86 CALM      30.22F
SIDNEY         TSTM      62  58  86 NE15      30.26R
CRESCENT LAKE    N/A     57  55  94 S3G22       N/A
$$

...OBSERVATIONS IN NORTHERN NEBRASKA AND FAR SOUTHERN SOUTH DAKOTA...

CITY           SKY/WX    TMP DP  RH WIND       PRES   REMARKS
WINNER         FAIR      77  62  59 SE9       30.12R
VALENTINE      PTSUNNY   71  63  75 SW3       30.14R
THEDFORD       PTSUNNY   71  62  72 NE7       30.13R
AINSWORTH      CLOUDY    69  65  86 CALM      30.13S
O`NEILL        CLOUDY    74  62  66 CALM      30.11S
ORD            CLOUDY    76  64  66 E6        30.08F
BROKEN BOW     CLOUDY    69  65  86 CALM      30.10F
VALENTINE NWR    N/A     68  63  83 E6          N/A
BUTTE            N/A     74  57  54 MISG        N/A
HALSEY           N/A     68  62  80 NE8G17      N/A
EWING            N/A     74  66  75 CALM        N/A
$$

...OBSERVATIONS IN SOUTHWEST NEBRASKA AND FAR NORTHEAST COLORADO...

CITY           SKY/WX    TMP DP  RH WIND       PRES   REMARKS
HOLYOKE        CLOUDY    66  61  82 E14       30.17R HAZE
IMPERIAL       CLOUDY    67  62  84 E12       30.13F
OGALLALA       CLOUDY    70  60  70 NE8       30.16R
NORTH PLATTE   CLOUDY    69  61  75 SE9       30.05F
MCCOOK         CLOUDY    80  64  58 E9        30.11R
LEXINGTON      LGT RAIN  69  65  86 N10       30.09F
STAPLETON        N/A     66  62  88 CALM        N/A
GOTHENBURG       N/A     64  58  82 N16         N/A
CALLAWAY         N/A     63  61  94 W12         N/A
$$

...OBSERVATIONS IN CENTRAL LINCOLN COUNTY AREA...

CITY           SKY/WX    TMP DP  RH WIND       PRES   REMARKS
N.P. AIRPORT   CLOUDY    69  61  75 SE9       30.05F
N.P. DOWNTOWN    N/A     69  65  87 CALM        N/A
N.P. SOUTHEAST   N/A     66  64  94 SE3         N/A
N.P. HILLCREST   N/A     68  64  85 SE7         N/A
$$

...SOME OBSERVATIONS FROM AROUND THE REGION...

CITY           SKY/WX    TMP DP  RH WIND       PRES   REMARKS
DENVER         MOSUNNY   74  59  59 N10       30.20R
LARAMIE        PTSUNNY   67  52  58 N14       30.34R
CHEYENNE       CLOUDY    66  57  72 N6        30.29S
SCOTTSBLUFF    LGT RAIN  60  32  34 W6        30.25S
RAPID CITY     CLOUDY    67  60  78 N5        30.14F
BISMARCK       CLOUDY    72  56  57 VRB3      30.15S
PIERRE         SUNNY     76  55  48 SE7       30.09F
SIOUX FALLS    PTSUNNY   69  63  81 NE8       30.07F
OMAHA          MOSUNNY   81  67  62 NW7       30.02S
GRAND ISLAND   MOSUNNY   79  65  62 N9        30.07F
KANSAS CITY    MOSUNNY   85  68  56 N10       29.98S
WICHITA        MOSUNNY   91  72  53 VRB5      29.98S HX  98
OKLAHOMA CITY  MOSUNNY   89  71  55 CALM      30.00R HX  95
DALLAS         CLOUDY    91  71  51 SW9       29.98F HX  97
AMARILLO       SUNNY     85  59  41 CALM      30.15F
DODGE CITY     SUNNY     85  62  46 SE10      30.04S
HAYS           SUNNY     84  64  51 E10       30.03R
GOODLAND       CLOUDY    66  63  90 NE7       30.12F
$$




USA.gov is the U.S. government's official web portal to all federal, state and local government web resources and services.